UAL1182 KCMH-KORD

Flight info

Callsign UAL1182
Flight time N/A
Altitude 30000
Route KCMH FWA WATSN4
Aircraft A320/M-SDE3FGHIRWY/LB1

Departure

Time N/A
Airport John Glenn Columbus International Airport (KCMH)

Arrival

Time 2026-05-04 04:25
Airport Chicago O'Hare International Airport (KORD)
Time Latitude Longitude Altitude Speed Heading
2026-05-04 04:14 41.96760 -87.12346 12849 ft 306 kts 280°
2026-05-04 04:14 41.97069 -87.15177 12386 ft 305 kts 280°
2026-05-04 04:15 41.97373 -87.17988 11986 ft 300 kts 280°
2026-05-04 04:15 41.97660 -87.20678 11717 ft 284 kts 280°
2026-05-04 04:15 41.97933 -87.23249 11426 ft 280 kts 280°
2026-05-04 04:15 41.98210 -87.25833 11093 ft 277 kts 280°
2026-05-04 04:16 41.98487 -87.28391 10724 ft 276 kts 280°
2026-05-04 04:16 41.98690 -87.31012 10000 ft 289 kts 272°
2026-05-04 04:16 41.98702 -87.33545 9275 ft 300 kts 272°
2026-05-04 04:16 41.98713 -87.36396 8425 ft 310 kts 272°
2026-05-04 04:17 41.98723 -87.37920 7979 ft 314 kts 272°
2026-05-04 04:17 41.98751 -87.40200 7456 ft 317 kts 271°
2026-05-04 04:18 41.98732 -87.43154 7004 ft 312 kts 270°
2026-05-04 04:18 41.98731 -87.46015 6759 ft 299 kts 271°
2026-05-04 04:18 41.98743 -87.48718 6429 ft 280 kts 271°
2026-05-04 04:18 41.98755 -87.51261 6079 ft 264 kts 271°
2026-05-04 04:19 41.98764 -87.53664 5722 ft 251 kts 271°
2026-05-04 04:19 41.98771 -87.55810 5406 ft 240 kts 271°
2026-05-04 04:19 41.98776 -87.57632 5152 ft 231 kts 271°
2026-05-04 04:19 41.98782 -87.59628 4857 ft 220 kts 271°
2026-05-04 04:20 41.98788 -87.61629 4577 ft 209 kts 271°
2026-05-04 04:20 41.98793 -87.63571 4293 ft 206 kts 271°
2026-05-04 04:20 41.98798 -87.65486 4015 ft 204 kts 271°
2026-05-04 04:20 41.98802 -87.67380 3744 ft 202 kts 271°
2026-05-04 04:21 41.98807 -87.69260 3479 ft 200 kts 270°
2026-05-04 04:21 41.98810 -87.71085 3218 ft 189 kts 271°
2026-05-04 04:21 41.98812 -87.72227 3047 ft 181 kts 270°
2026-05-04 04:21 41.98816 -87.74401 2747 ft 170 kts 270°
2026-05-04 04:22 41.98818 -87.75936 2516 ft 154 kts 269°
2026-05-04 04:22 41.98820 -87.76856 2398 ft 144 kts 269°
2026-05-04 04:22 41.98821 -87.78054 2220 ft 139 kts 269°
2026-05-04 04:22 41.98823 -87.79345 2032 ft 137 kts 268°
2026-05-04 04:23 41.98824 -87.80620 1841 ft 136 kts 267°
2026-05-04 04:23 41.98826 -87.81882 1668 ft 135 kts 268°
2026-05-04 04:23 41.98827 -87.83139 1486 ft 134 kts 266°
2026-05-04 04:23 41.98828 -87.84405 1335 ft 136 kts 267°
2026-05-04 04:24 41.98828 -87.85681 1173 ft 137 kts 267°
2026-05-04 04:24 41.98832 -87.86970 994 ft 138 kts 267°
2026-05-04 04:24 41.98820 -87.88259 849 ft 138 kts 268°
2026-05-04 04:24 41.98831 -87.89546 696 ft 133 kts 265°
2026-05-04 04:25 41.98825 -87.90526 674 ft 98 kts 272°
2026-05-04 04:25 41.98829 -87.91206 669 ft 45 kts 271°
2026-05-04 04:25 41.98801 -87.91468 666 ft 24 kts 237°
2026-05-04 04:25 41.98732 -87.91608 669 ft 14 kts 232°
2026-05-04 04:26 41.98685 -87.91718 668 ft 9 kts 251°
2026-05-04 04:26 41.98676 -87.91777 669 ft 5 kts 263°
2026-05-04 04:26 41.98675 -87.91789 669 ft 2 kts 262°
2026-05-04 04:26 41.98655 -87.91815 669 ft 7 kts 205°
2026-05-04 04:27 41.98602 -87.91818 669 ft 9 kts 174°
2026-05-04 04:27 41.98531 -87.91818 669 ft 11 kts 182°
2026-05-04 04:27 41.98444 -87.91821 669 ft 14 kts 180°
2026-05-04 04:27 41.98346 -87.91821 670 ft 13 kts 180°
2026-05-04 04:28 41.98287 -87.91774 670 ft 11 kts 97°
2026-05-04 04:28 41.98288 -87.91658 670 ft 14 kts 90°
2026-05-04 04:28 41.98289 -87.91522 670 ft 16 kts 89°
2026-05-04 04:28 41.98288 -87.91373 671 ft 16 kts 90°
2026-05-04 04:29 41.98288 -87.91211 670 ft 19 kts 89°
2026-05-04 04:29 41.98288 -87.91040 669 ft 18 kts 90°
2026-05-04 04:29 41.98287 -87.90855 669 ft 21 kts 90°
2026-05-04 04:29 41.98287 -87.90664 668 ft 18 kts 91°
2026-05-04 04:30 41.98279 -87.90532 667 ft 7 kts 120°
2026-05-04 04:30 41.98227 -87.90513 668 ft 7 kts 179°
2026-05-04 04:30 41.98197 -87.90513 669 ft 0 kts 181°